Regional Weather Roundup
Issued by NWS Raleigh/Durham, NC

Home | Current Version | Previous Version | Text Only | Print | Product List | Glossary On
Versions: 1 2 3 4 5 6 7 8 9 10 11 12 13 14 15 16 17 18 19 20 21 22 23 24 25 26 27 28 29 30 31 32 33 34 35 36 37 38 39 40 41 42 43 44 45 46 47 48 49 50
000
ASUS42 KRAH 251210
RWRRAH
NORTH CAROLINA WEATHER ROUNDUP
NATIONAL WEATHER SERVICE RALEIGH NC
700 AM EST SUN JAN 25 2015

NOTE: "FAIR" INDICATES FEW OR NO CLOUDS BELOW 12,000 FEET WITH NO
SIGNIFICANT WEATHER AND/OR OBSTRUCTIONS TO VISIBILITY.

NCZ001-053-055-056-065-067-251300-
WESTERN NORTH CAROLINA

CITY           SKY/WX    TMP DP  RH WIND       PRES   REMARKS
ASHEVILLE      CLEAR     27  24  89 CALM      29.89R
JEFFERSON      CLEAR     31  24  75 CALM      29.83R
MORGANTON      CLEAR     29  27  92 CALM      29.93R
HICKORY        CLEAR     30  25  81 CALM      29.89R
RUTHERFORDTON  CLEAR     29  26  87 N5        29.91S WCI  24
MOUNT AIRY     CLEAR     32  28  83 CALM      29.90R
BOONE          PTCLDY    31  28  88 NW7       29.83F WCI  24
$$

NCZ021-022-025-041-071-084-088-251300-
CENTRAL NORTH CAROLINA

CITY           SKY/WX    TMP DP  RH WIND       PRES   REMARKS
CHARLOTTE      CLEAR     28  23  81 S3        29.93R
GREENSBORO     PTCLDY    27  24  89 S7        29.88R WCI  19
WINSTON-SALEM  CLEAR     31  24  75 CALM      29.90R
RALEIGH-DURHAM PTCLDY    30  25  81 CALM      29.91R
FORT BRAGG     CLEAR     32  26  77 CALM      29.93R
FAYETTEVILLE   CLEAR     32  27  81 W7        29.93R WCI  26
BURLINGTON     CLEAR     28  24  85 W3        29.91R
LAURINBURG     CLEAR     29  27  92 W3        29.95R
$$

NCZ011-015-027-028-043-044-047-080-103-251300-
NORTHEASTERN NORTH CAROLINA

CITY           SKY/WX    TMP DP  RH WIND       PRES   REMARKS
ROCKY MT-WILSO CLEAR     28  26  92 S3        29.91R
GREENVILLE     CLEAR     34  30  86 CALM      29.93F
WASHINGTON     CLEAR     31  29  91 CALM      29.93R
ELIZABETH CITY CLEAR     34  28  79 W7        29.90R WCI  28
MANTEO         CLEAR     39  32  75 W6        29.91R WCI  35
CAPE HATTERAS  CLEAR     42  32  67 NW12G23   29.91R
$$

NCZ078-087-090-091-093-098-101-251300-
SOUTHEASTERN NORTH CAROLINA

CITY           SKY/WX    TMP DP  RH WIND       PRES   REMARKS
LUMBERTON      CLEAR     31  29  92 SW3       29.94R
GOLDSBORO      CLEAR     30  30  98 S1        29.91S
KINSTON        CLEAR     30  28  93 CALM      29.93R
KENANSVILLE    CLEAR     29  29 100 CALM      29.94R
NEW BERN       CLEAR     37  29  72 CALM      29.93R
CHERRY POINT   FAIR      36  29  75 W3        29.94R
BEAUFORT       FAIR      37  31  78 W3        29.94R
JACKSONVILLE   CLEAR     35  31  85 SW5       29.94R WCI  31
WILMINGTON     CLEAR     35  34  96 CALM      29.95R
$$



USA.gov is the U.S. government's official web portal to all federal, state and local government web resources and services.